| time (UTC) | temp F | wind direction | speed knots | gust knots | rain 1hr in | rain 24hr in | rain mn in | humidity % | barometer mb |
| 20260906080609 | 86 | 340 | 0.9 | 4.3 | 0.00 | 0.00 | 0.00 | 1117.7 | |
| 20260906075558 | 86 | 349 | 2.6 | 6.1 | 0.00 | 0.00 | 0.00 | 1117.5 | |
| 20260906075053 | 85 | 8 | 0.0 | 4.3 | 0.00 | 0.00 | 0.00 | 1117.5 | |
| 20260906074547 | 85 | 333 | 0.9 | 4.3 | 0.00 | 0.00 | 0.00 | 1117.6 | |
| 20260906074042 | 85 | 348 | 0.0 | 4.3 | 0.00 | 0.00 | 0.00 | 1117.5 | |
| 20260906073536 | 85 | 16 | 0.0 | 4.3 | 0.00 | 0.00 | 0.00 | 1117.4 | |
| 20260906073031 | 84 | 19 | 0.9 | 7.0 | 0.00 | 0.00 | 0.00 | 1117.4 | |
| 20260906072526 | 84 | 44 | 1.7 | 7.0 | 0.00 | 0.00 | 0.00 | 1117.4 | |
| 20260906072020 | 84 | 349 | 1.7 | 5.2 | 0.00 | 0.00 | 0.00 | 1117.4 | |
| 20260906071515 | 84 | 303 | 1.7 | 6.1 | 0.00 | 0.00 | 0.00 | 1117.4 | |
| 20260906071009 | 83 | 321 | 1.7 | 7.0 | 0.00 | 0.00 | 0.00 | 1117.3 | |
| 20260906065958 | 83 | 341 | 0.9 | 5.2 | 0.00 | 0.00 | 0.00 | 1117.3 | |
| 20260906065453 | 83 | 330 | 1.7 | 5.2 | 0.00 | 0.00 | 0.00 | 1117.2 | |
| 20260906064948 | 82 | 44 | 0.9 | 4.3 | 0.00 | 0.00 | 0.00 | 1117.2 | |
| 20260906064442 | 82 | 301 | 0.9 | 5.2 | 0.00 | 0.00 | 0.00 | 1117.0 | |
| 20260906063937 | 82 | 258 | 0.9 | 5.2 | 0.00 | 0.00 | 0.00 | 1117.0 | |
| 20260906063431 | 82 | 292 | 0.9 | 3.5 | 0.00 | 0.00 | 0.00 | 1117.0 | |
| 20260906062926 | 81 | 283 | 0.0 | 4.3 | 0.00 | 0.00 | 0.00 | 1117.1 | |
| 20260906062421 | 81 | 323 | 0.0 | 4.3 | 0.00 | 0.00 | 0.00 | 1117.0 | |
| 20260906061409 | 81 | 332 | 0.9 | 4.3 | 0.00 | 0.00 | 0.00 | 1116.9 | |
| 20260906060904 | 81 | 320 | 1.7 | 4.3 | 0.00 | 0.00 | 0.00 | 1116.7 | |
| 20260906060359 | 80 | 331 | 0.9 | 3.5 | 0.00 | 0.00 | 0.00 | 1116.7 | |
| 20260906055853 | 80 | 315 | 0.9 | 4.3 | 0.00 | 0.00 | 0.00 | 1116.6 | |
| 20260906055348 | 80 | 331 | 0.9 | 4.3 | 0.00 | 0.00 | 0.00 | 1116.6 | |
| 20260906054842 | 80 | 346 | 0.9 | 2.6 | 0.00 | 0.00 | 0.00 | 1116.5 | |
| 20260906054336 | 80 | 315 | 0.0 | 2.6 | 0.00 | 0.00 | 0.00 | 1116.4 | |
| 20260906053831 | 80 | 326 | 0.0 | 2.6 | 0.00 | 0.00 | 0.00 | 1116.3 | |
| 20260906053326 | 79 | 186 | 0.0 | 2.6 | 0.00 | 0.00 | 0.00 | 1116.2 | |
| 20260906052819 | 79 | 315 | 0.9 | 2.6 | 0.00 | 0.00 | 0.00 | 1116.2 | |
| 20260906052314 | 79 | 273 | 0.0 | 2.6 | 0.00 | 0.00 | 0.00 | 1116.2 | |
| 20260906051808 | 79 | 0 | 0.0 | 2.6 | 0.00 | 0.00 | 0.00 | 1116.1 | |
| 20260906051303 | 79 | 275 | 0.0 | 1.7 | 0.00 | 0.00 | 0.00 | 1116.0 | |
| 20260906050758 | 78 | 350 | 0.0 | 1.7 | 0.00 | 0.00 | 0.00 | 1116.1 | |
| 20260906050252 | 78 | 293 | 0.0 | 3.5 | 0.00 | 0.00 | 0.00 | 1116.0 | |
| 20260906045747 | 78 | 345 | 0.0 | 4.3 | 0.00 | 0.00 | 0.00 | 1116.0 | |
| 20260906045241 | 78 | 241 | 0.0 | 4.3 | 0.00 | 0.00 | 0.00 | 1115.9 | |
| 20260906043724 | 78 | 18 | 0.0 | 3.5 | 0.00 | 0.00 | 0.00 | 1115.8 | |
| 20260906043219 | 78 | 17 | 0.0 | 4.3 | 0.00 | 0.00 | 0.00 | 1115.9 | |
| 20260906042714 | 78 | 352 | 0.0 | 4.3 | 0.00 | 0.00 | 0.00 | 1115.8 | |
| 20260906042208 | 78 | 8 | 0.0 | 2.6 | 0.00 | 0.00 | 0.00 | 1115.6 | |
| 20260906041702 | 78 | 216 | 0.9 | 2.6 | 0.00 | 0.00 | 0.00 | 1115.6 | |
| 20260906041154 | 78 | 276 | 0.0 | 3.5 | 0.00 | 0.00 | 0.00 | 1115.5 | |
| 20260906040649 | 78 | 185 | 0.9 | 3.5 | 0.00 | 0.00 | 0.00 | 1115.5 | |
| 20260906040143 | 79 | 146 | 0.0 | 2.6 | 0.00 | 0.00 | 0.00 | 1115.5 | |
| 20260906035638 | 79 | 359 | 0.0 | 2.6 | 0.00 | 0.00 | 0.00 | 1115.5 | |
| 20260906035133 | 79 | 214 | 0.0 | 2.6 | 0.00 | 0.00 | 0.00 | 1115.4 | |
| 20260906034627 | 79 | 7 | 0.0 | 2.6 | 0.00 | 0.00 | 0.00 | 1115.4 | |
| 20260906034122 | 79 | 303 | 0.0 | 4.3 | 0.00 | 0.00 | 0.00 | 1115.3 | |
| 20260906033615 | 79 | 319 | 1.7 | 4.3 | 0.00 | 0.00 | 0.00 | 1115.3 | |
| 20260906033110 | 79 | 30 | 0.0 | 1.7 | 0.00 | 0.00 | 0.00 | 1115.3 | |
| 20260906032604 | 79 | 64 | 0.0 | 1.7 | 0.00 | 0.00 | 0.00 | 1115.3 | |
| 20260906032059 | 79 | 273 | 0.0 | 2.6 | 0.00 | 0.00 | 0.00 | 1115.2 | |
| 20260906031553 | 79 | 67 | 0.0 | 2.6 | 0.00 | 0.00 | 0.00 | 1115.3 | |
| 20260906031048 | 79 | 35 | 0.0 | 2.6 | 0.00 | 0.00 | 0.00 | 1115.2 | |
| 20260906030542 | 79 | 67 | 0.0 | 2.6 | 0.00 | 0.00 | 0.00 | 1115.3 | |
| 20260906030037 | 79 | 346 | 0.0 | 2.6 | 0.00 | 0.00 | 0.00 | 1115.2 | |
| 20260906025532 | 79 | 319 | 0.0 | 2.6 | 0.00 | 0.00 | 0.00 | 1115.1 | |
| 20260906025026 | 79 | 291 | 0.0 | 2.6 | 0.00 | 0.00 | 0.00 | 1115.1 | |
| 20260906024521 | 80 | 346 | 0.0 | 2.6 | 0.00 | 0.00 | 0.00 | 1115.2 | |
| 20260906024015 | 80 | 35 | 0.0 | 1.7 | 0.00 | 0.00 | 0.00 | 1115.2 | |
| 20260906023510 | 80 | 46 | 0.0 | 1.7 | 0.00 | 0.00 | 0.00 | 1115.1 | |
| 20260906023004 | 80 | 65 | 0.0 | 2.6 | 0.00 | 0.00 | 0.00 | 1115.0 | |
| 20260906022459 | 80 | 26 | 0.0 | 1.7 | 0.00 | 0.00 | 0.00 | 1115.0 | |
| 20260906021953 | 80 | 358 | 0.0 | 1.7 | 0.00 | 0.00 | 0.00 | 1114.9 | |
| 20260906021448 | 80 | 332 | 0.0 | 1.7 | 0.00 | 0.00 | 0.00 | 1114.9 | |
| 20260906020943 | 80 | 155 | 0.0 | 2.6 | 0.00 | 0.00 | 0.00 | 1114.9 | |
| 20260906020437 | 80 | 335 | 0.9 | 2.6 | 0.00 | 0.00 | 0.00 | 1114.9 | |
| 20260906015931 | 80 | 269 | 0.0 | 0.0 | 0.00 | 0.00 | 0.00 | 1115.0 | |
| 20260906015426 | 80 | 198 | 0.0 | 2.6 | 0.00 | 0.00 | 0.00 | 1115.0 | |
| 20260906014920 | 80 | 329 | 0.0 | 3.5 | 0.00 | 0.00 | 0.00 | 1115.0 | |
| 20260906014415 | 80 | 122 | 0.0 | 3.5 | 0.00 | 0.00 | 0.00 | 1114.9 | |
| 20260906013909 | 80 | 346 | 0.0 | 2.6 | 0.00 | 0.00 | 0.00 | 1114.8 | |
| 20260906013402 | 81 | 306 | 0.0 | 2.6 | 0.00 | 0.00 | 0.00 | 1114.7 | |
| 20260906012857 | 81 | 299 | 0.0 | 2.6 | 0.00 | 0.00 | 0.00 | 1114.8 | |
| 20260906012352 | 81 | 41 | 0.0 | 2.6 | 0.00 | 0.00 | 0.00 | 1114.8 | |
| 20260906011846 | 81 | 312 | 0.0 | 2.6 | 0.00 | 0.00 | 0.00 | 1114.7 | |
| 20260906011341 | 81 | 287 | 0.0 | 4.3 | 0.00 | 0.00 | 0.00 | 1114.7 | |
| 20260906010835 | 81 | 338 | 0.9 | 4.3 | 0.00 | 0.00 | 0.00 | 1114.7 | |
| 20260906010329 | 81 | 313 | 0.0 | 2.6 | 0.00 | 0.00 | 0.00 | 1114.7 | |
| 20260906005824 | 81 | 237 | 0.0 | 2.6 | 0.00 | 0.00 | 0.00 | 1114.6 | |
| 20260906005318 | 81 | 334 | 0.9 | 2.6 | 0.00 | 0.00 | 0.00 | 1114.8 | |
| 20260906004812 | 81 | 242 | 0.0 | 1.7 | 0.00 | 0.00 | 0.00 | 1114.7 | |
| 20260906003801 | 81 | 234 | 0.0 | 1.7 | 0.00 | 0.00 | 0.00 | 1114.7 | |
| 20260906003255 | 81 | 15 | 0.0 | 0.0 | 0.00 | 0.00 | 0.00 | 1114.7 | |
| 20260906002749 | 81 | 358 | 0.0 | 0.0 | 0.00 | 0.00 | 0.00 | 1114.8 | |
| 20260906002244 | 81 | 40 | 0.0 | 2.6 | 0.00 | 0.00 | 0.00 | 1114.7 | |
| 20260906001738 | 81 | 298 | 0.0 | 2.6 | 0.00 | 0.00 | 0.00 | 1114.8 | |
| 20260906001233 | 82 | 29 | 0.9 | 2.6 | 0.00 | 0.00 | 0.00 | 1114.8 | |
| 20260906000727 | 82 | 128 | 0.0 | 2.6 | 0.00 | 0.00 | 0.00 | 1114.8 | |
| 20260906000222 | 82 | 249 | 0.0 | 1.7 | 0.00 | 0.00 | 0.00 | 1114.8 | |
| 20260905235716 | 82 | 20 | 0.0 | 1.7 | 0.00 | 0.00 | 0.00 | 1114.7 | |
| 20260905235211 | 82 | 291 | 0.0 | 1.7 | 0.00 | 0.00 | 0.00 | 1114.7 | |
| 20260905234705 | 82 | 67 | 0.0 | 2.6 | 0.00 | 0.00 | 0.00 | 1114.7 | |
| 20260905234200 | 82 | 9 | 0.0 | 2.6 | 0.00 | 0.00 | 0.00 | 1114.7 | |
| 20260905233654 | 82 | 53 | 0.9 | 1.7 | 0.00 | 0.00 | 0.00 | 1114.6 | |
| 20260905233149 | 82 | 68 | 0.0 | 1.7 | 0.00 | 0.00 | 0.00 | 1114.6 | |
| 20260905232643 | 83 | 12 | 0.0 | 2.6 | 0.00 | 0.00 | 0.00 | 1114.5 | |
| 20260905232138 | 83 | 291 | 0.0 | 2.6 | 0.00 | 0.00 | 0.00 | 1114.5 | |
| 20260905231632 | 83 | 173 | 0.0 | 0.0 | 0.00 | 0.00 | 0.00 | 1114.5 | |
| 20260905231127 | 83 | 293 | 0.0 | 0.0 | 0.00 | 0.00 | 0.00 | 1114.5 | |
| 20260905230622 | 83 | 353 | 0.0 | 0.0 | 0.00 | 0.00 | 0.00 | 1114.5 | |
| 20260905230116 | 83 | 270 | 0.0 | 1.7 | 0.00 | 0.00 | 0.00 | 1114.4 | |
| 20260905225611 | 83 | 271 | 0.0 | 1.7 | 0.00 | 0.00 | 0.00 | 1114.4 | |
| 20260905225105 | 83 | 354 | 0.0 | 0.0 | 0.00 | 0.00 | 0.00 | 1114.3 | |
| 20260905224559 | 83 | 335 | 0.0 | 0.0 | 0.00 | 0.00 | 0.00 | 1114.3 | |
| 20260905224054 | 83 | 312 | 0.0 | 2.6 | 0.00 | 0.00 | 0.00 | 1114.3 | |
| 20260905223042 | 83 | 309 | 0.0 | 0.0 | 0.00 | 0.00 | 0.00 | 1114.2 | |
| 20260905222537 | 83 | 253 | 0.0 | 0.0 | 0.00 | 0.00 | 0.00 | 1114.2 | |
| 20260905222031 | 83 | 349 | 0.0 | 0.0 | 0.00 | 0.00 | 0.00 | 1114.0 | |
| 20260905221526 | 84 | 357 | 0.0 | 0.0 | 0.00 | 0.00 | 0.00 | 1114.0 | |
| 20260905221020 | 84 | 318 | 0.0 | 2.6 | 0.00 | 0.00 | 0.00 | 1114.0 | |
| 20260905220514 | 84 | 352 | 0.0 | 2.6 | 0.00 | 0.00 | 0.00 | 1114.0 | |
| 20260905215503 | 84 | 0 | 0.0 | 1.7 | 0.00 | 0.00 | 0.00 | 1113.8 | |
| 20260905214957 | 84 | 39 | 0.0 | 2.6 | 0.00 | 0.00 | 0.00 | 1113.8 | |
| 20260905214452 | 84 | 352 | 0.0 | 2.6 | 0.00 | 0.00 | 0.00 | 1113.9 | |
| 20260905213946 | 84 | 46 | 0.0 | 3.5 | 0.00 | 0.00 | 0.00 | 1113.8 | |
| 20260905213441 | 84 | 330 | 0.0 | 3.5 | 0.00 | 0.00 | 0.00 | 1113.8 | |
| 20260905212936 | 84 | 329 | 0.0 | 1.7 | 0.00 | 0.00 | 0.00 | 1113.8 | |
| 20260905212430 | 85 | 328 | 0.0 | 0.0 | 0.00 | 0.00 | 0.00 | 1113.7 | |
| 20260905211925 | 85 | 302 | 0.0 | 0.0 | 0.00 | 0.00 | 0.00 | 1113.7 | |
| 20260905211419 | 85 | 341 | 0.0 | 0.0 | 0.00 | 0.00 | 0.00 | 1113.7 | |
| 20260905210914 | 85 | 338 | 0.0 | 1.7 | 0.00 | 0.00 | 0.00 | 1113.8 | |
| 20260905210408 | 85 | 346 | 0.0 | 2.6 | 0.00 | 0.00 | 0.00 | 1113.7 | |
| 20260905205903 | 85 | 304 | 0.0 | 2.6 | 0.00 | 0.00 | 0.00 | 1113.7 | |
| 20260905205358 | 85 | 334 | 0.0 | 1.7 | 0.00 | 0.00 | 0.00 | 1113.6 | |
| 20260905204852 | 85 | 355 | 0.0 | 1.7 | 0.00 | 0.00 | 0.00 | 1113.7 | |
| 20260905204347 | 85 | 336 | 0.0 | 1.7 | 0.00 | 0.00 | 0.00 | 1113.6 | |
| 20260905203841 | 85 | 330 | 0.0 | 1.7 | 0.00 | 0.00 | 0.00 | 1113.6 | |
| 20260905203336 | 85 | 270 | 0.0 | 0.0 | 0.00 | 0.00 | 0.00 | 1113.5 | |
| 20260905202831 | 85 | 270 | 0.0 | 0.0 | 0.00 | 0.00 | 0.00 | 1113.4 | |
| 20260905202325 | 85 | 270 | 0.0 | 0.0 | 0.00 | 0.00 | 0.00 | 1113.5 | |
| 20260905201820 | 86 | 270 | 0.0 | 0.0 | 0.00 | 0.00 | 0.00 | 1113.3 | |
| 20260905201314 | 86 | 50 | 0.0 | 0.0 | 0.00 | 0.00 | 0.00 | 1113.3 | |
| 20260905200809 | 86 | 31 | 0.0 | 0.0 | 0.00 | 0.00 | 0.00 | 1113.2 | |
| 20260905200304 | 86 | 81 | 0.0 | 0.0 | 0.00 | 0.00 | 0.00 | 1113.0 | |
| 20260905195758 | 86 | 36 | 0.0 | 0.0 | 0.00 | 0.00 | 0.00 | 1113.1 | |
| 20260905195253 | 86 | 40 | 0.0 | 0.0 | 0.00 | 0.00 | 0.00 | 1113.2 | |
| 20260905194747 | 86 | 42 | 0.0 | 0.0 | 0.00 | 0.00 | 0.00 | 1113.1 | |
| 20260905194242 | 86 | 86 | 0.0 | 0.0 | 0.00 | 0.00 | 0.00 | 1113.0 | |
| 20260905193736 | 86 | 73 | 0.0 | 0.0 | 0.00 | 0.00 | 0.00 | 1112.9 | |
| 20260905193231 | 86 | 40 | 0.0 | 0.0 | 0.00 | 0.00 | 0.00 | 1113.0 | |
| 20260905192725 | 87 | 18 | 0.0 | 0.0 | 0.00 | 0.00 | 0.00 | 1112.8 | |
| 20260905192220 | 87 | 44 | 0.0 | 0.0 | 0.00 | 0.00 | 0.00 | 1112.8 | |
| 20260905191714 | 87 | 52 | 0.0 | 0.0 | 0.00 | 0.00 | 0.00 | 1112.7 | |
| 20260905191209 | 87 | 45 | 0.0 | 0.0 | 0.00 | 0.00 | 0.00 | 1112.6 | |
| 20260905190704 | 87 | 45 | 0.0 | 0.0 | 0.00 | 0.00 | 0.00 | 1112.6 | |
| 20260905190158 | 87 | 42 | 0.0 | 0.0 | 0.00 | 0.00 | 0.00 | 1112.5 | |
| 20260905185653 | 88 | 40 | 0.0 | 0.0 | 0.00 | 0.00 | 0.00 | 1112.4 | |
| 20260905185147 | 88 | 52 | 0.0 | 0.0 | 0.00 | 0.00 | 0.00 | 1112.3 | |
| 20260905184642 | 88 | 45 | 0.0 | 0.0 | 0.00 | 0.00 | 0.00 | 1112.3 | |
| 20260905184137 | 88 | 45 | 0.0 | 0.0 | 0.00 | 0.00 | 0.00 | 1112.2 | |
| 20260905183631 | 88 | 6 | 0.0 | 0.0 | 0.00 | 0.00 | 0.00 | 1112.2 | |
| 20260905183126 | 88 | 88 | 0.0 | 0.0 | 0.00 | 0.00 | 0.00 | 1112.1 | |
| 20260905182620 | 89 | 45 | 0.0 | 0.0 | 0.00 | 0.00 | 0.00 | 1111.9 | |
| 20260905182115 | 89 | 45 | 0.0 | 0.0 | 0.00 | 0.00 | 0.00 | 1111.8 | |
| 20260905181609 | 89 | 45 | 0.0 | 0.0 | 0.00 | 0.00 | 0.00 | 1111.7 | |
| 20260905181103 | 89 | 89 | 0.0 | 0.0 | 0.00 | 0.00 | 0.00 | 1111.6 | |
| 20260905180558 | 89 | 89 | 0.0 | 0.0 | 0.00 | 0.00 | 0.00 | 1111.6 | |
| 20260905180053 | 90 | 63 | 0.0 | 0.0 | 0.00 | 0.00 | 0.00 | 1111.6 | |
| 20260905175546 | 90 | 89 | 0.0 | 0.0 | 0.00 | 0.00 | 0.00 | 1111.4 | |
| 20260905175041 | 90 | 89 | 0.0 | 0.0 | 0.00 | 0.00 | 0.00 | 1111.3 | |
| 20260905174535 | 90 | 89 | 0.0 | 0.0 | 0.00 | 0.00 | 0.00 | 1111.2 | |
| 20260905174030 | 91 | 89 | 0.0 | 0.0 | 0.00 | 0.00 | 0.00 | 1111.2 | |
| 20260905173525 | 91 | 76 | 0.0 | 0.0 | 0.00 | 0.00 | 0.00 | 1111.1 | |
| 20260905173019 | 91 | 45 | 0.0 | 0.0 | 0.00 | 0.00 | 0.00 | 1111.1 | |
| 20260905172513 | 92 | 45 | 0.0 | 0.0 | 0.00 | 0.00 | 0.00 | 1111.0 | |
| 20260905172008 | 92 | 45 | 0.0 | 0.0 | 0.00 | 0.00 | 0.00 | 1110.9 | |
| 20260905171502 | 92 | 45 | 0.0 | 0.0 | 0.00 | 0.00 | 0.00 | 1110.9 | |
| 20260905170956 | 93 | 45 | 0.0 | 0.0 | 0.00 | 0.00 | 0.00 | 1110.8 | |
| 20260905170450 | 93 | 45 | 0.0 | 0.0 | 0.00 | 0.00 | 0.00 | 1110.8 | |
| 20260905165945 | 93 | 45 | 0.0 | 0.0 | 0.00 | 0.00 | 0.00 | 1110.7 | |
| 20260905165438 | 94 | 56 | 0.0 | 0.0 | 0.00 | 0.00 | 0.00 | 1110.7 | |
| 20260905164427 | 94 | 91 | 0.0 | 0.0 | 0.00 | 0.00 | 0.00 | 1110.7 | |
| 20260905163922 | 94 | 84 | 0.0 | 0.0 | 0.00 | 0.00 | 0.00 | 1110.6 | |
| 20260905163416 | 94 | 112 | 0.0 | 0.0 | 0.00 | 0.00 | 0.00 | 1110.5 | |
| 20260905162911 | 95 | 64 | 0.0 | 0.0 | 0.00 | 0.00 | 0.00 | 1110.5 | |
| 20260905162405 | 95 | 20 | 0.0 | 0.0 | 0.00 | 0.00 | 0.00 | 1110.6 | |
| 20260905161900 | 95 | 44 | 0.0 | 0.0 | 0.00 | 0.00 | 0.00 | 1110.5 | |
| 20260905161355 | 95 | 46 | 0.0 | 0.0 | 0.00 | 0.00 | 0.00 | 1110.5 | |
| 20260905160849 | 95 | 41 | 0.0 | 0.0 | 0.00 | 0.00 | 0.00 | 1110.3 | |
| 20260905160344 | 95 | 55 | 0.0 | 0.0 | 0.00 | 0.00 | 0.00 | 1110.4 | |
| 20260905155838 | 95 | 39 | 0.0 | 0.0 | 0.00 | 0.00 | 0.00 | 1110.5 | |
| 20260905155333 | 95 | 68 | 0.0 | 0.0 | 0.00 | 0.00 | 0.00 | 1110.4 | |
| 20260905154828 | 95 | 34 | 0.0 | 0.0 | 0.00 | 0.00 | 0.00 | 1110.3 | |
| 20260905154322 | 95 | 66 | 0.0 | 0.0 | 0.00 | 0.00 | 0.00 | 1110.3 | |
| 20260905153817 | 95 | 52 | 0.0 | 0.0 | 0.00 | 0.00 | 0.00 | 1110.2 | |
| 20260905153311 | 95 | 77 | 0.0 | 0.0 | 0.00 | 0.00 | 0.00 | 1110.2 | |
| 20260905152806 | 95 | 84 | 0.0 | 0.0 | 0.00 | 0.00 | 0.00 | 1110.3 | |
| 20260905152301 | 95 | 89 | 0.0 | 0.0 | 0.00 | 0.00 | 0.00 | 1110.2 | |
| 20260905151755 | 95 | 52 | 0.0 | 0.0 | 0.00 | 0.00 | 0.00 | 1110.2 | |
| 20260905151250 | 96 | 83 | 0.0 | 0.0 | 0.00 | 0.00 | 0.00 | 1110.2 | |
| 20260905150744 | 96 | 270 | 0.0 | 0.0 | 0.00 | 0.00 | 0.00 | 1110.2 | |
| 20260905150238 | 96 | 60 | 0.0 | 0.0 | 0.00 | 0.00 | 0.00 | 1110.2 | |
| 20260905145733 | 96 | 52 | 0.0 | 0.0 | 0.00 | 0.00 | 0.00 | 1110.0 | |
| 20260905145227 | 96 | 0 | 0.0 | 0.0 | 0.00 | 0.00 | 0.00 | 1110.1 | |
| 20260905144216 | 95 | 115 | 0.0 | 0.0 | 0.00 | 0.00 | 0.00 | 1110.1 | |
| 20260905143711 | 95 | 69 | 0.0 | 0.0 | 0.00 | 0.00 | 0.00 | 1110.1 | |
| 20260905143204 | 95 | 47 | 0.0 | 0.0 | 0.00 | 0.00 | 0.00 | 1110.3 | |
| 20260905142659 | 95 | 97 | 0.0 | 0.0 | 0.00 | 0.00 | 0.00 | 1110.3 | |
| 20260905142154 | 95 | 68 | 0.0 | 0.0 | 0.00 | 0.00 | 0.00 | 1110.3 | |
| 20260905141647 | 95 | 175 | 0.0 | 0.0 | 0.00 | 0.00 | 0.00 | 1110.3 | |
| 20260905141142 | 95 | 18 | 0.0 | 2.6 | 0.00 | 0.00 | 0.00 | 1110.2 | |
| 20260905140636 | 95 | 70 | 0.0 | 4.3 | 0.00 | 0.00 | 0.00 | 1110.2 | |
| 20260905140131 | 95 | 141 | 0.0 | 1.7 | 0.00 | 0.00 | 0.00 | 1110.2 | |
| 20260905135626 | 95 | 250 | 0.0 | 0.0 | 0.00 | 0.00 | 0.00 | 1110.3 | |
| 20260905135120 | 95 | 225 | 0.0 | 0.0 | 0.00 | 0.00 | 0.00 | 1110.3 | |
| 20260905134615 | 95 | 225 | 0.0 | 0.0 | 0.00 | 0.00 | 0.00 | 1110.4 | |
| 20260905134108 | 95 | 109 | 0.0 | 2.6 | 0.00 | 0.00 | 0.00 | 1110.4 | |
| 20260905133603 | 95 | 248 | 0.0 | 2.6 | 0.00 | 0.00 | 0.00 | 1110.4 | |
| 20260905133058 | 95 | 275 | 0.0 | 0.0 | 0.00 | 0.00 | 0.00 | 1110.5 | |
| 20260905132552 | 95 | 83 | 0.0 | 0.0 | 0.00 | 0.00 | 0.00 | 1110.6 | |
| 20260905132047 | 95 | 147 | 0.0 | 0.0 | 0.00 | 0.00 | 0.00 | 1110.5 | |
| 20260905131541 | 95 | 195 | 0.0 | 0.0 | 0.00 | 0.00 | 0.00 | 1110.4 | |
| 20260905131036 | 94 | 223 | 0.0 | 0.0 | 0.00 | 0.00 | 0.00 | 1110.5 | |
| 20260905130529 | 94 | 314 | 0.0 | 0.0 | 0.00 | 0.00 | 0.00 | 1110.5 | |
| 20260905130023 | 94 | 89 | 0.0 | 0.0 | 0.00 | 0.00 | 0.00 | 1110.7 | |
| 20260905125518 | 94 | 35 | 0.0 | 0.0 | 0.00 | 0.00 | 0.00 | 1110.7 | |
| 20260905125012 | 94 | 90 | 0.0 | 0.0 | 0.00 | 0.00 | 0.00 | 1110.8 | |
| 20260905124507 | 94 | 134 | 0.0 | 0.0 | 0.00 | 0.00 | 0.00 | 1110.9 | |
| 20260905124001 | 94 | 329 | 0.0 | 0.0 | 0.00 | 0.00 | 0.00 | 1110.9 | |
| 20260905123456 | 94 | 12 | 0.0 | 0.0 | 0.00 | 0.00 | 0.00 | 1111.0 | |
| 20260905122950 | 94 | 315 | 0.0 | 1.7 | 0.00 | 0.00 | 0.00 | 1111.0 | |
| 20260905122445 | 94 | 7 | 0.0 | 1.7 | 0.00 | 0.00 | 0.00 | 1111.1 | |
| 20260905121939 | 94 | 225 | 0.0 | 0.0 | 0.00 | 0.00 | 0.00 | 1111.2 | |
| 20260905121434 | 94 | 313 | 0.0 | 2.6 | 0.00 | 0.00 | 0.00 | 1111.2 | |
| 20260905120929 | 94 | 71 | 0.0 | 2.6 | 0.00 | 0.00 | 0.00 | 1111.2 | |
| 20260905120423 | 94 | 345 | 0.0 | 2.6 | 0.00 | 0.00 | 0.00 | 1111.1 | |
| 20260905115918 | 94 | 5 | 0.0 | 3.5 | 0.00 | 0.00 | 0.00 | 1111.2 | |
| 20260905115413 | 94 | 33 | 0.9 | 3.5 | 0.00 | 0.00 | 0.00 | 1111.1 | |
| 20260905114907 | 93 | 122 | 0.0 | 0.0 | 0.00 | 0.00 | 0.00 | 1111.1 | |
| 20260905114402 | 93 | 0 | 0.0 | 0.0 | 0.00 | 0.00 | 0.00 | 1111.1 | |
| 20260905113856 | 93 | 336 | 0.0 | 0.0 | 0.00 | 0.00 | 0.00 | 1111.2 | |
| 20260905113351 | 93 | 169 | 0.0 | 2.6 | 0.00 | 0.00 | 0.00 | 1111.3 | |
| 20260905112845 | 93 | 358 | 0.0 | 2.6 | 0.00 | 0.00 | 0.00 | 1111.4 | |
| 20260905112340 | 93 | 88 | 0.0 | 1.7 | 0.00 | 0.00 | 0.00 | 1111.5 | |
| 20260905111835 | 93 | 94 | 0.0 | 1.7 | 0.00 | 0.00 | 0.00 | 1111.5 | |
| 20260905111329 | 93 | 126 | 0.0 | 2.6 | 0.00 | 0.00 | 0.00 | 1111.4 | |
| 20260905110824 | 93 | 281 | 0.0 | 2.6 | 0.00 | 0.00 | 0.00 | 1111.3 | |
| 20260905110318 | 93 | 354 | 0.0 | 0.0 | 0.00 | 0.00 | 0.00 | 1111.3 | |
| 20260905105813 | 93 | 21 | 0.0 | 4.3 | 0.00 | 0.00 | 0.00 | 1111.3 | |
| 20260905105308 | 93 | 220 | 0.0 | 4.3 | 0.00 | 0.00 | 0.00 | 1111.4 | |
| 20260905104802 | 93 | 331 | 0.0 | 4.3 | 0.00 | 0.00 | 0.00 | 1111.6 | |
| 20260905104257 | 93 | 60 | 0.0 | 4.3 | 0.00 | 0.00 | 0.00 | 1111.5 | |
| 20260905103751 | 93 | 317 | 0.0 | 4.3 | 0.00 | 0.00 | 0.00 | 1111.4 | |
| 20260905103246 | 93 | 3 | 0.9 | 4.3 | 0.00 | 0.00 | 0.00 | 1111.4 | |
| 20260905102740 | 93 | 43 | 0.0 | 2.6 | 0.00 | 0.00 | 0.00 | 1111.5 | |
| 20260905102235 | 93 | 64 | 0.0 | 2.6 | 0.00 | 0.00 | 0.00 | 1111.6 | |
| 20260905101730 | 93 | 305 | 0.0 | 2.6 | 0.00 | 0.00 | 0.00 | 1111.6 | |
| 20260905101224 | 94 | 320 | 0.0 | 2.6 | 0.00 | 0.00 | 0.00 | 1111.5 | |
| 20260905100719 | 94 | 352 | 0.0 | 2.6 | 0.00 | 0.00 | 0.00 | 1111.5 | |
| 20260905100213 | 94 | 353 | 0.0 | 2.6 | 0.00 | 0.00 | 0.00 | 1111.5 | |
| 20260905095707 | 95 | 53 | 0.0 | 2.6 | 0.00 | 0.00 | 0.00 | 1111.6 | |
| 20260905095202 | 95 | 355 | 0.0 | 1.7 | 0.00 | 0.00 | 0.00 | 1111.4 | |
| 20260905094656 | 95 | 235 | 0.0 | 0.0 | 0.00 | 0.00 | 0.00 | 1111.4 | |
| 20260905094151 | 95 | 73 | 0.0 | 0.0 | 0.00 | 0.00 | 0.00 | 1111.4 | |
| 20260905093645 | 95 | 66 | 0.0 | 0.0 | 0.00 | 0.00 | 0.00 | 1111.5 | |
| 20260905093139 | 95 | 94 | 0.0 | 0.0 | 0.00 | 0.00 | 0.00 | 1111.4 | |
| 20260905092634 | 94 | 89 | 0.0 | 0.0 | 0.00 | 0.00 | 0.00 | 1111.4 | |
| 20260905092128 | 94 | 2 | 0.0 | 0.0 | 0.00 | 0.00 | 0.00 | 1111.4 | |
| 20260905091623 | 94 | 201 | 0.0 | 1.7 | 0.00 | 0.00 | 0.00 | 1111.4 | |
| 20260905091117 | 94 | 328 | 0.0 | 2.6 | 0.00 | 0.00 | 0.00 | 1111.4 | |
| 20260905090612 | 93 | 45 | 0.0 | 0.0 | 0.00 | 0.00 | 0.00 | 1111.4 | |
| 20260905090107 | 92 | 15 | 0.0 | 2.6 | 0.00 | 0.00 | 0.00 | 1111.5 | |
| 20260905085601 | 92 | 16 | 0.0 | 2.6 | 0.00 | 0.00 | 0.00 | 1111.4 | |
| 20260905085056 | 92 | 80 | 0.0 | 0.0 | 0.00 | 0.00 | 0.00 | 1111.3 | |
| 20260905084550 | 91 | 343 | 0.0 | 1.7 | 0.00 | 0.00 | 0.00 | 1111.2 | |
| 20260905084045 | 91 | 15 | 0.0 | 1.7 | 0.00 | 0.00 | 0.00 | 1111.2 | |
| 20260905083539 | 90 | 114 | 0.0 | 0.0 | 0.00 | 0.00 | 0.00 | 1111.2 | |
| 20260905083034 | 89 | 33 | 0.0 | 2.6 | 0.00 | 0.00 | 0.00 | 1111.1 | |
| 20260905082529 | 89 | 322 | 0.0 | 2.6 | 0.00 | 0.00 | 0.00 | 1111.1 | |
| 20260905082023 | 88 | 299 | 0.0 | 1.7 | 0.00 | 0.00 | 0.00 | 1110.9 | |
| 20260905081518 | 87 | 307 | 0.0 | 5.2 | 0.00 | 0.00 | 0.00 | 1111.1 | |
| 20260905081012 | 87 | 28 | 0.0 | 5.2 | 0.00 | 0.00 | 0.00 | 1111.1 |